Temperature
15 15 15 15 15 15 15 15 15 16 16 16 15 15 15 14 14 14 14 14 14 14 14 14 14 14 14 14 14 14 14 14 14 14 14 14 14 14
15 15 15 15 15 15 15 14 15 15 15 15 14 14 14 14 14 14 14 14 14 14 14 14 14 14 14 14 14 14 14 14 14 14 14 14 14 14
14 14 14 14 14 14 14 14 14 14 14 14 14 14 14 13 13 13 14 14 14 14 14 14 14 14 14 14 14 13 13 13 13 13 13 13 13 13
14 14 14 14 14 14 14 14 14 14 14 14 14 14 13 13 13 13 13 13 13 13 13 13 13 13 13 13 13 13 13 13 13 13 13 13 13 13
14 14 14 14 14 14 13 13 13 14 13 13 13 13 13 13 13 13 13 13 13 13 13 13 13 13 13 13 13 13 13 13 13 13 13 13 13 13
13 13 13 13 13 13 13 13 13 13 13 13 13 13 13 13 12 12 12 12 12 12 12 12 12 12 12 12 12 12 12 12 12 12 13 13 13 13
13 13 13 13 13 13 13 13 13 13 13 13 13 12 12 12 12 12 12 12 12 12 12 12 12 12 12 12 12 12 12 12 12 12 12 12 12 12
13 12 12 13 13 13 13 12 12 12 12 12 12 12 12 12 11 11 12 12 12 12 12 12 12 12 12 12 12 12 12 12 12 12 12 12 12 12
12 12 12 12 12 12 12 12 12 12 12 12 11 11 11 11 11 11 11 11 11 11 11 11 12 12 12 12 12 12 12 12 12 12 12 12 12 12
12 12 12 12 12 12 12 12 12 11 11 11 11 11 11 11 11 11 11 11 11 11 11 11 11 11 11 11 11 11 11 11 11 11 11 11 11 12
12 12 12 11 12 12 11 11 11 11 11 11 11 11 11 11 11 11 11 11 11 11 11 11 11 11 11 11 11 11 11 11 11 11 11 11 11 11
12 12 12 11 11 11 11 11 11 11 11 11 11 11 11 11 11 11 11 11 11 11 11 10 11 10 11 11 11 11 10 10 10 11 11 10 11 10
12 12 11 11 11 11 11 11 11 11 11 11 11 11 11 11 10 10 10 10 10 10 10 10 10 10 10 10 10 10 10 10 10 10 10 10 10 10
11 11 11 11 11 11 11 11 11 11 10 11 11 11 11 11 10 10 10 10 10 10 10 10 10 10 10 10 10 10 10 10 10 10 10 10 10 10
11 11 11 11 11 11 11 11 10 10 10 10 11 10 10 10 10 10 10 10 10 10 10 10 10 10 9 10 10 10 10 9 9 10 10 10 10 10
11 11 10 10 10 10 10 10 10 10 10 10 10 10 10 10 10 10 10 10 10 10 10 10 9 9 9 9 9 9 9 9 9 9 9 9 9 10
10 10 10 10 10 10 10 10 10 10 10 10 10 10 10 10 10 10 9 10 10 10 10 9 9 9 9 9 9 9 9 9 9 9 9 9 9 9
10 10 10 10 10 10 10 10 10 10 10 10 9 9 9 9 9 9 9 9 10 10 10 9 9 9 9 9 9 9 9 9 9 9 9 9 9 9
10 10 10 10 10 10 10 10 10 9 9 9 9 9 9 9 9 9 9 9 9 9 9 9 9 9 9 9 9 9 9 8 8 9 9 9 9 9
10 10 10 10 10 10 10 9 9 9 9 9 9 9 9 9 9 9 9 9 9 9 9 9 9 9 9 9 9 8 8 8 8 8 8 8 8 8
10 10 10 10 9 9 9 9 9 9 9 9 9 9 9 9 9 9 9 8 8 9 9 9 8 8 8 8 8 8 8 8 8 8 8 8 8 8
10 10 9 9 9 9 9 8 9 8 8 8 9 8 8 8 8 8 9 9 8 8 8 8 8 8 8 8 8 8 8 8 8 8 8 8 8 8
10 9 9 9 9 9 8 8 8 8 8 8 8 8 8 8 8 8 8 8 8 8 8 8 8 8 8 8 8 8 8 8 8 8 8 8 8 8
Wind_Speed
2 2 3 2 3 3 3 3 4 4 3 2 2 1 1 1 1 3 3 4 6 6 6 6 7 7 8 8 8 8 8 7 7 6 7 7 8 9
2 2 3 3 3 3 3 3 4 5 4 2 2 2 2 2 1 2 3 4 7 7 7 7 7 7 7 7 8 8 9 8 8 7 7 7 7 9
2 2 2 3 2 3 3 3 4 4 4 3 3 2 2 3 2 3 3 4 4 7 7 7 7 7 7 7 7 8 9 9 8 8 8 8 8 9
2 2 2 2 2 3 3 3 3 3 4 4 4 3 3 3 3 3 3 2 3 5 7 7 7 7 7 7 8 8 8 8 8 8 8 8 8 9
3 3 3 3 3 3 3 3 3 3 3 4 4 3 3 2 2 3 3 2 3 3 7 8 8 8 8 8 9 8 8 8 8 8 9 9 9 8
3 3 3 3 3 3 3 3 3 3 3 3 3 3 2 2 2 3 3 2 3 3 2 4 6 9 9 9 9 8 8 8 8 8 8 8 8 8
3 3 2 3 4 3 3 3 3 3 3 3 3 3 3 3 3 3 3 3 3 3 3 3 4 5 6 9 9 8 8 8 7 7 7 7 7 7
3 3 2 1 1 1 2 3 3 3 3 3 3 3 4 4 4 4 4 4 4 3 3 4 4 4 3 4 5 8 8 7 7 6 6 6 6 6
3 3 3 2 2 2 1 2 2 3 4 5 4 5 5 4 5 6 5 6 5 4 4 5 4 3 4 2 8 8 8 7 6 6 6 6 6 6
2 2 2 3 3 3 3 2 3 3 3 3 4 5 5 5 5 6 6 5 5 4 4 5 4 4 4 3 8 9 8 8 7 7 7 7 6 6
2 2 2 2 2 3 3 3 3 3 2 2 2 4 5 6 6 5 4 4 4 3 3 4 4 4 4 3 5 9 9 9 8 8 7 7 7 7
2 2 1 1 1 3 3 3 4 4 4 3 3 4 5 4 5 5 5 5 5 4 2 3 4 3 3 3 3 4 5 8 10 9 9 8 8 6
3 2 1 2 1 4 5 4 5 5 5 5 4 4 3 3 3 3 4 4 5 5 3 3 4 4 3 3 3 3 4 4 6 7 9 10 8 7
4 3 2 1 3 5 4 4 5 6 5 5 4 4 4 3 3 3 3 4 5 5 4 4 4 4 4 4 3 3 3 3 3 3 4 8 9 9
3 3 2 3 5 4 4 5 5 5 5 5 5 5 4 3 3 3 3 4 4 5 4 5 5 4 4 4 3 3 4 3 3 3 3 3 4 5
3 2 4 6 6 4 3 3 4 4 4 5 5 5 4 3 4 4 4 4 4 4 3 4 5 5 5 4 4 4 4 3 3 3 3 3 4 4
4 4 4 4 3 3 3 3 3 4 4 4 5 5 4 4 4 4 4 5 5 4 3 2 3 4 4 4 4 4 4 4 3 2 3 3 3 3
5 4 4 4 4 4 4 4 4 4 4 5 5 5 5 4 4 4 5 5 5 4 3 2 2 3 3 3 3 5 4 3 3 2 4 4 3 3
5 4 4 4 5 5 5 5 5 4 4 5 5 5 5 5 5 5 4 4 5 4 4 3 3 4 4 4 2 3 4 3 3 3 3 3 3 3
4 4 5 5 5 5 5 5 5 5 5 5 5 5 6 6 6 5 5 5 5 4 4 4 4 4 4 4 3 2 4 4 4 3 3 3 3 2
4 4 5 5 5 5 5 6 6 6 6 6 5 6 6 6 6 6 5 5 5 5 5 4 2 3 3 2 3 3 3 4 3 3 3 4 3 4
5 5 5 5 5 5 6 6 6 6 6 6 6 6 6 6 6 7 6 5 5 4 5 3 2 3 4 4 4 3 3 3 4 5 4 4 4 4
5 5 5 5 5 5 6 6 7 7 6 7 6 6 6 6 6 6 6 5 5 5 4 4 3 4 4 4 4 3 3 4 3 4 4 5 6 6
Wind_Direction
252 244 257 265 258 260 268 267 269 276 279 258 271 274 260 242 180 237 230 188 196 208 213 214 210 214 219 219 219 214 212 215 220 224 227 231 234 235
272 287 279 272 268 258 257 257 261 264 276 298 292 288 311 286 205 253 238 200 205 207 210 209 209 214 217 221 220 213 211 214 216 224 230 235 241 240
271 270 274 286 278 273 269 266 264 263 266 282 288 289 281 277 267 266 245 234 208 186 197 202 206 211 215 220 220 217 217 218 219 227 232 237 244 243
291 291 286 277 275 277 286 281 278 272 265 275 281 283 271 268 261 265 255 243 240 172 188 201 207 211 215 217 218 217 219 222 223 228 232 237 240 240
314 310 305 298 286 290 284 281 285 282 276 269 275 287 283 289 285 273 269 264 253 196 189 197 202 208 214 213 214 214 216 220 225 230 232 235 237 238
321 319 321 316 306 296 278 281 286 288 275 272 281 287 291 305 296 283 283 279 274 251 221 218 208 208 213 212 211 211 213 218 224 228 228 228 230 234
321 322 331 352 356 328 314 312 301 287 284 283 284 288 297 311 304 291 281 283 273 261 263 246 227 229 217 209 208 208 208 212 217 222 223 224 225 228
319 315 303 293 318 251 323 322 314 292 293 290 283 286 292 296 299 287 282 278 279 267 268 267 257 252 243 229 178 180 195 204 211 215 218 219 223 226
316 316 319 360 347 318 275 228 252 246 251 273 282 287 287 284 282 280 283 281 280 273 270 265 256 255 250 211 159 174 187 198 208 212 213 216 220 224
306 309 312 331 335 328 316 312 299 287 270 269 283 283 285 289 282 275 276 274 270 260 257 267 262 268 264 231 164 174 187 197 206 210 215 216 215 220
282 293 291 298 5 316 289 296 301 295 249 223 267 281 287 276 273 271 273 269 271 268 250 263 271 278 270 243 181 178 193 199 201 205 212 219 219 219
277 256 167 288 326 289 279 288 290 299 306 296 266 251 254 249 243 256 266 266 269 273 264 262 262 270 269 254 232 201 200 196 196 200 204 211 215 220
297 297 345 106 265 277 277 280 290 294 289 280 275 276 271 265 264 270 279 277 275 272 264 261 272 268 263 269 264 240 228 223 208 204 203 204 210 225
299 308 354 82 278 275 276 287 284 276 274 277 283 287 285 286 285 282 277 281 282 277 274 265 269 266 265 266 263 257 255 245 237 234 218 194 204 216
300 338 311 255 257 255 239 253 259 267 277 283 288 288 289 294 288 270 259 258 265 264 258 251 254 249 252 259 258 257 258 253 244 241 234 213 216 212
279 256 228 237 248 268 259 250 266 285 288 287 289 288 288 281 276 276 271 269 269 267 246 239 245 244 246 249 247 254 257 255 245 242 246 244 235 230
293 277 280 282 281 283 286 287 284 280 282 292 293 290 287 285 281 281 274 268 267 271 271 248 235 233 236 252 253 253 254 251 245 246 243 250 251 240
278 273 277 284 291 294 293 289 286 291 295 294 289 283 281 279 278 275 271 270 270 269 270 270 259 242 235 239 253 256 259 256 249 234 249 242 249 242
256 272 279 285 287 288 288 286 288 291 285 278 278 280 279 277 276 275 273 274 276 275 270 263 255 249 248 254 241 226 257 260 253 239 242 246 252 254
264 277 280 282 282 284 287 287 287 287 282 280 279 281 280 277 275 272 267 269 270 272 269 259 254 259 267 277 281 250 222 246 250 247 247 249 248 219
278 278 281 284 287 287 288 288 287 285 286 283 280 281 280 280 276 270 263 253 260 261 262 261 266 262 268 266 256 252 238 202 228 259 260 252 247 240
285 282 280 283 284 283 280 280 279 279 281 279 281 279 276 274 270 267 263 255 249 254 264 263 226 234 238 237 239 242 246 215 196 213 247 269 270 259
286 289 286 279 280 281 282 281 281 280 277 277 275 275 277 275 272 266 258 256 255 251 249 253 246 233 233 232 236 240 233 234 234 226 229 220 224 236
Height
1514 1513 1513 1514 1514 1514 1514 1514 1514 1513 1513 1512 1512 1511 1511 1511 1510 1510 1510 1510 1510 1510 1511 1511 1512 1513 1514 1515 1515 1516 1517 1518 1519 1520 1521 1522 1523 1524
1512 1512 1511 1512 1512 1512 1512 1512 1512 1512 1511 1510 1510 1510 1509 1509 1508 1507 1507 1507 1507 1507 1507 1508 1509 1509 1510 1511 1512 1513 1514 1515 1516 1517 1517 1518 1519 1520
1510 1510 1510 1509 1509 1510 1510 1509 1509 1509 1508 1508 1508 1507 1506 1505 1505 1505 1505 1504 1504 1504 1504 1505 1505 1506 1507 1508 1509 1509 1510 1511 1512 1513 1514 1514 1515 1516
1509 1508 1508 1508 1507 1507 1507 1507 1506 1506 1506 1505 1504 1504 1503 1503 1502 1502 1502 1502 1502 1501 1501 1501 1502 1503 1503 1504 1505 1506 1507 1507 1508 1509 1509 1510 1511 1511
1508 1507 1506 1506 1505 1505 1504 1504 1504 1504 1503 1502 1502 1502 1501 1501 1500 1500 1500 1499 1499 1499 1498 1498 1499 1499 1500 1500 1501 1502 1503 1503 1504 1504 1505 1506 1506 1507
1506 1505 1504 1504 1503 1502 1502 1502 1501 1501 1501 1500 1500 1499 1499 1498 1498 1497 1497 1497 1497 1497 1496 1496 1496 1496 1496 1497 1498 1498 1499 1499 1500 1500 1501 1501 1502 1502
1504 1503 1502 1502 1501 1500 1500 1500 1499 1499 1499 1498 1498 1497 1497 1496 1496 1495 1495 1494 1494 1494 1493 1493 1493 1493 1493 1493 1494 1494 1495 1495 1496 1496 1496 1497 1497 1497
1503 1502 1501 1500 1499 1498 1498 1497 1497 1497 1496 1496 1495 1495 1494 1494 1493 1493 1493 1492 1491 1492 1491 1490 1490 1490 1490 1490 1490 1490 1491 1491 1491 1492 1492 1492 1493 1493
1501 1500 1500 1500 1498 1497 1496 1495 1495 1494 1494 1494 1493 1493 1492 1492 1490 1490 1489 1489 1488 1488 1488 1487 1487 1486 1487 1487 1486 1486 1486 1487 1487 1487 1488 1488 1488 1489
1500 1499 1498 1497 1496 1495 1495 1494 1494 1493 1492 1492 1491 1491 1490 1489 1488 1487 1486 1485 1484 1484 1484 1484 1483 1483 1483 1483 1482 1482 1483 1483 1483 1483 1484 1484 1484 1484
1498 1497 1496 1496 1495 1494 1493 1492 1492 1491 1491 1490 1489 1488 1487 1486 1485 1485 1484 1483 1481 1481 1481 1481 1481 1480 1480 1479 1479 1479 1479 1479 1479 1479 1480 1480 1480 1480
1497 1496 1494 1494 1493 1492 1491 1491 1490 1489 1489 1487 1486 1485 1484 1483 1482 1482 1481 1480 1479 1478 1478 1478 1478 1477 1476 1476 1477 1477 1476 1476 1476 1476 1476 1476 1476 1476
1495 1494 1493 1492 1491 1490 1489 1488 1487 1487 1486 1485 1484 1483 1482 1481 1480 1479 1478 1477 1477 1476 1475 1475 1474 1474 1473 1473 1473 1474 1474 1474 1473 1473 1473 1473 1473 1474
1493 1492 1491 1490 1489 1488 1487 1485 1485 1484 1483 1483 1482 1481 1480 1479 1478 1476 1475 1474 1473 1472 1471 1471 1471 1470 1470 1470 1470 1471 1471 1471 1471 1471 1471 1470 1470 1470
1490 1489 1488 1487 1486 1485 1484 1483 1482 1482 1481 1481 1480 1479 1478 1476 1475 1474 1472 1471 1470 1469 1468 1468 1467 1467 1467 1467 1467 1467 1468 1468 1468 1468 1468 1468 1468 1468
1488 1487 1485 1484 1483 1482 1482 1481 1480 1479 1478 1478 1477 1476 1475 1473 1472 1471 1470 1469 1468 1467 1466 1465 1464 1464 1464 1464 1464 1464 1465 1465 1465 1465 1465 1465 1466 1466
1485 1484 1483 1483 1481 1480 1480 1478 1478 1477 1476 1475 1474 1473 1472 1470 1469 1468 1467 1466 1465 1464 1463 1462 1461 1461 1461 1461 1462 1462 1462 1462 1462 1462 1462 1463 1463 1463
1483 1482 1481 1480 1479 1478 1477 1476 1475 1474 1473 1472 1471 1470 1469 1467 1466 1465 1464 1463 1462 1461 1461 1460 1459 1459 1459 1459 1459 1459 1459 1459 1459 1459 1460 1460 1460 1461
1480 1479 1479 1478 1477 1476 1475 1474 1472 1471 1470 1469 1468 1467 1466 1464 1463 1462 1461 1460 1459 1458 1458 1457 1456 1456 1456 1455 1455 1456 1456 1456 1456 1457 1457 1457 1457 1458
1478 1477 1476 1475 1474 1473 1472 1471 1469 1468 1467 1466 1465 1463 1462 1461 1460 1459 1458 1457 1456 1455 1454 1454 1453 1453 1453 1453 1453 1453 1453 1454 1454 1454 1454 1455 1455 1455
1475 1474 1473 1472 1471 1470 1468 1467 1466 1465 1464 1462 1461 1460 1459 1457 1456 1456 1455 1454 1453 1452 1452 1451 1450 1450 1450 1450 1450 1451 1451 1451 1451 1452 1452 1453 1453 1453
1472 1471 1470 1469 1468 1466 1465 1464 1463 1461 1460 1459 1458 1456 1455 1454 1453 1452 1452 1451 1450 1449 1449 1448 1447 1447 1447 1447 1447 1448 1448 1449 1449 1449 1449 1450 1450 1451
1469 1468 1466 1465 1464 1463 1462 1460 1459 1457 1456 1455 1454 1452 1451 1450 1449 1449 1448 1448 1447 1446 1446 1445 1445 1445 1445 1445 1445 1445 1446 1446 1447 1447 1447 1447 1447 1448